| time (UTC) | temp F | wind direction | speed knots | gust knots | rain 1hr in | rain 24hr in | rain mn in | humidity % | barometer mb |
| 20260508212335 | 98 | 263 | 3.5 | 8.7 | 0.00 | 0.00 | 0.00 | 14 | 1007.4 |
| 20260508211401 | 98 | 306 | 1.7 | 10.4 | 0.00 | 0.00 | 0.00 | 14 | 1007.6 |
| 20260508210327 | 97 | 273 | 2.6 | 9.6 | 0.00 | 0.00 | 0.00 | 14 | 1007.8 |
| 20260508205340 | 97 | 305 | 2.6 | 10.4 | 0.00 | 0.00 | 0.00 | 15 | 1007.9 |
| 20260508204346 | 96 | 226 | 4.3 | 8.7 | 0.00 | 0.00 | 0.00 | 15 | 1008.2 |
| 20260508203332 | 96 | 250 | 1.7 | 7.8 | 0.00 | 0.00 | 0.00 | 15 | 1008.3 |
| 20260508202339 | 96 | 280 | 3.5 | 10.4 | 0.00 | 0.00 | 0.00 | 14 | 1008.4 |
| 20260508201331 | 96 | 240 | 5.2 | 9.6 | 0.00 | 0.00 | 0.00 | 14 | 1008.6 |
| 20260508200336 | 95 | 228 | 2.6 | 10.4 | 0.00 | 0.00 | 0.00 | 15 | 1008.7 |
| 20260508195343 | 94 | 274 | 2.6 | 7.0 | 0.00 | 0.00 | 0.00 | 14 | 1008.8 |
| 20260508194330 | 94 | 217 | 2.6 | 6.1 | 0.00 | 0.00 | 0.00 | 14 | 1008.8 |
| 20260508193342 | 94 | 200 | 0.9 | 4.3 | 0.00 | 0.00 | 0.00 | 16 | 1009.0 |
| 20260508192329 | 94 | 288 | 0.9 | 6.1 | 0.00 | 0.00 | 0.00 | 15 | 1009.2 |
| 20260508191335 | 93 | 243 | 0.0 | 8.7 | 0.00 | 0.00 | 0.00 | 16 | 1009.5 |
| 20260508190342 | 93 | 211 | 1.7 | 7.0 | 0.00 | 0.00 | 0.00 | 16 | 1009.7 |
| 20260508185333 | 93 | 115 | 0.0 | 0.9 | 0.00 | 0.00 | 0.00 | 15 | 1009.8 |
| 20260508184340 | 92 | 323 | 0.9 | 8.7 | 0.00 | 0.00 | 0.00 | 16 | 1009.9 |
| 20260508183327 | 92 | 130 | 0.0 | 4.3 | 0.00 | 0.00 | 0.00 | 17 | 1010.1 |
| 20260508182334 | 92 | 105 | 0.0 | 0.9 | 0.00 | 0.00 | 0.00 | 16 | 1010.1 |
| 20260508181345 | 92 | 96 | 0.0 | 0.0 | 0.00 | 0.00 | 0.00 | 16 | 1010.3 |
| 20260508180333 | 91 | 188 | 0.0 | 0.0 | 0.00 | 0.00 | 0.00 | 17 | 1010.4 |
| 20260508175340 | 91 | 207 | 0.0 | 0.0 | 0.00 | 0.00 | 0.00 | 18 | 1010.5 |
| 20260508174328 | 90 | 215 | 0.0 | 0.0 | 0.00 | 0.00 | 0.00 | 18 | 1010.5 |
| 20260508173339 | 90 | 319 | 0.0 | 0.0 | 0.00 | 0.00 | 0.00 | 18 | 1010.7 |
| 20260508172327 | 89 | 153 | 0.0 | 0.0 | 0.00 | 0.00 | 0.00 | 19 | 1010.7 |
| 20260508171331 | 88 | 96 | 0.0 | 1.7 | 0.00 | 0.00 | 0.00 | 19 | 1010.8 |
| 20260508170359 | 88 | 31 | 0.0 | 0.0 | 0.00 | 0.00 | 0.00 | 19 | 1010.9 |
| 20260508165328 | 87 | 10 | 0.0 | 0.0 | 0.00 | 0.00 | 0.00 | 20 | 1010.9 |
| 20260508164336 | 86 | 46 | 0.0 | 0.0 | 0.00 | 0.00 | 0.00 | 20 | 1011.0 |
| 20260508163345 | 86 | 196 | 0.0 | 0.9 | 0.00 | 0.00 | 0.00 | 21 | 1010.9 |
| 20260508162352 | 85 | 226 | 0.0 | 0.0 | 0.00 | 0.00 | 0.00 | 22 | 1011.0 |
| 20260508161358 | 84 | 181 | 0.0 | 0.0 | 0.00 | 0.00 | 0.00 | 22 | 1011.0 |
| 20260508160346 | 83 | 351 | 0.0 | 0.0 | 0.00 | 0.00 | 0.00 | 22 | 1011.1 |
| 20260508155333 | 83 | 168 | 0.0 | 0.0 | 0.00 | 0.00 | 0.00 | 23 | 1011.1 |
| 20260508154400 | 82 | 175 | 0.0 | 1.7 | 0.00 | 0.00 | 0.00 | 24 | 1011.1 |
| 20260508153327 | 81 | 49 | 0.0 | 0.9 | 0.00 | 0.00 | 0.00 | 24 | 1011.1 |
| 20260508152358 | 80 | 73 | 0.0 | 3.5 | 0.00 | 0.00 | 0.00 | 26 | 1011.1 |
| 20260508151344 | 79 | 68 | 2.6 | 7.0 | 0.00 | 0.00 | 0.00 | 26 | 1011.2 |
| 20260508150332 | 79 | 86 | 3.5 | 7.0 | 0.00 | 0.00 | 0.00 | 26 | 1011.1 |
| 20260508145339 | 78 | 74 | 1.7 | 7.0 | 0.00 | 0.00 | 0.00 | 26 | 1011.1 |
| 20260508144330 | 77 | 88 | 1.7 | 6.1 | 0.00 | 0.00 | 0.00 | 27 | 1011.1 |
| 20260508143358 | 76 | 70 | 0.9 | 5.2 | 0.00 | 0.00 | 0.00 | 30 | 1011.0 |
| 20260508142404 | 75 | 82 | 2.6 | 7.0 | 0.00 | 0.00 | 0.00 | 30 | 1011.1 |
| 20260508141331 | 74 | 113 | 1.7 | 5.2 | 0.00 | 0.00 | 0.00 | 31 | 1010.9 |
| 20260508140339 | 74 | 66 | 0.0 | 3.5 | 0.00 | 0.00 | 0.00 | 33 | 1010.9 |
| 20260508135330 | 73 | 75 | 0.9 | 5.2 | 0.00 | 0.00 | 0.00 | 33 | 1010.8 |
| 20260508134358 | 72 | 74 | 0.9 | 4.3 | 0.00 | 0.00 | 0.00 | 33 | 1010.8 |
| 20260508133345 | 71 | 71 | 1.7 | 5.2 | 0.00 | 0.00 | 0.00 | 33 | 1010.7 |
| 20260508132332 | 70 | 74 | 0.0 | 5.2 | 0.00 | 0.00 | 0.00 | 34 | 1010.4 |
| 20260508131344 | 70 | 52 | 0.9 | 5.2 | 0.00 | 0.00 | 0.00 | 34 | 1010.3 |
| 20260508130331 | 69 | 64 | 0.0 | 0.0 | 0.00 | 0.00 | 0.00 | 34 | 1010.1 |
| 20260508125338 | 70 | 78 | 0.0 | 0.0 | 0.00 | 0.00 | 0.00 | 33 | 1009.9 |
| 20260508124406 | 70 | 67 | 1.7 | 4.3 | 0.00 | 0.00 | 0.00 | 33 | 1009.8 |
| 20260508123336 | 70 | 62 | 0.0 | 4.3 | 0.00 | 0.00 | 0.00 | 33 | 1009.8 |
| 20260508122344 | 70 | 74 | 0.0 | 3.5 | 0.00 | 0.00 | 0.00 | 33 | 1009.6 |
| 20260508121332 | 70 | 112 | 0.0 | 3.5 | 0.00 | 0.00 | 0.00 | 32 | 1009.5 |
| 20260508120359 | 70 | 75 | 0.9 | 4.3 | 0.00 | 0.00 | 0.00 | 31 | 1009.4 |
| 20260508115330 | 70 | 71 | 0.0 | 2.6 | 0.00 | 0.00 | 0.00 | 31 | 1009.3 |
| 20260508114336 | 70 | 65 | 0.0 | 3.5 | 0.00 | 0.00 | 0.00 | 30 | 1009.4 |
| 20260508113403 | 70 | 90 | 0.0 | 4.3 | 0.00 | 0.00 | 0.00 | 30 | 1009.2 |
| 20260508112331 | 71 | 55 | 0.0 | 6.1 | 0.00 | 0.00 | 0.00 | 29 | 1009.3 |
| 20260508111402 | 71 | 80 | 0.0 | 5.2 | 0.00 | 0.00 | 0.00 | 28 | 1009.3 |
| 20260508110328 | 71 | 81 | 0.0 | 3.5 | 0.00 | 0.00 | 0.00 | 27 | 1009.3 |
| 20260508105335 | 71 | 78 | 0.0 | 1.7 | 0.00 | 0.00 | 0.00 | 26 | 1009.2 |
| 20260508104341 | 72 | 85 | 0.0 | 3.5 | 0.00 | 0.00 | 0.00 | 25 | 1009.2 |
| 20260508103332 | 72 | 81 | 0.9 | 3.5 | 0.00 | 0.00 | 0.00 | 24 | 1009.1 |
| 20260508102339 | 72 | 71 | 2.6 | 4.3 | 0.00 | 0.00 | 0.00 | 24 | 1009.1 |
| 20260508101344 | 72 | 111 | 0.9 | 5.2 | 0.00 | 0.00 | 0.00 | 23 | 1009.0 |
| 20260508100331 | 73 | 98 | 0.0 | 4.3 | 0.00 | 0.00 | 0.00 | 22 | 1009.1 |
| 20260508095343 | 73 | 100 | 0.0 | 4.3 | 0.00 | 0.00 | 0.00 | 22 | 1009.0 |
| 20260508094331 | 73 | 82 | 0.9 | 4.3 | 0.00 | 0.00 | 0.00 | 22 | 1009.0 |
| 20260508093358 | 74 | 83 | 0.0 | 7.0 | 0.00 | 0.00 | 0.00 | 23 | 1008.9 |
| 20260508092343 | 74 | 72 | 0.0 | 2.6 | 0.00 | 0.00 | 0.00 | 23 | 1008.9 |
| 20260508091350 | 74 | 82 | 0.0 | 0.9 | 0.00 | 0.00 | 0.00 | 23 | 1008.9 |
| 20260508090340 | 74 | 75 | 0.0 | 0.9 | 0.00 | 0.00 | 0.00 | 23 | 1008.8 |
| 20260508085406 | 74 | 97 | 0.0 | 0.0 | 0.00 | 0.00 | 0.00 | 24 | 1008.8 |
| 20260508084331 | 74 | 64 | 0.0 | 0.0 | 0.00 | 0.00 | 0.00 | 24 | 1008.8 |
| 20260508083359 | 74 | 78 | 0.0 | 0.0 | 0.00 | 0.00 | 0.00 | 24 | 1008.9 |
| 20260508082329 | 74 | 52 | 0.0 | 1.7 | 0.00 | 0.00 | 0.00 | 23 | 1009.0 |
| 20260508081336 | 75 | 94 | 0.9 | 1.7 | 0.00 | 0.00 | 0.00 | 25 | 1009.0 |
| 20260508080343 | 75 | 11 | 0.0 | 0.0 | 0.00 | 0.00 | 0.00 | 23 | 1009.0 |
| 20260508075332 | 76 | 304 | 0.0 | 0.0 | 0.00 | 0.00 | 0.00 | 23 | 1008.9 |
| 20260508074402 | 76 | 27 | 0.0 | 0.0 | 0.00 | 0.00 | 0.00 | 22 | 1008.9 |
| 20260508073329 | 77 | 27 | 0.0 | 0.0 | 0.00 | 0.00 | 0.00 | 21 | 1008.9 |
| 20260508072336 | 77 | 329 | 0.0 | 0.0 | 0.00 | 0.00 | 0.00 | 21 | 1008.8 |
| 20260508071342 | 78 | 329 | 0.0 | 0.0 | 0.00 | 0.00 | 0.00 | 20 | 1008.7 |
| 20260508070348 | 78 | 327 | 0.0 | 0.0 | 0.00 | 0.00 | 0.00 | 20 | 1008.5 |
| 20260508065358 | 79 | 327 | 0.0 | 0.0 | 0.00 | 0.00 | 0.00 | 18 | 1008.5 |
| 20260508064345 | 79 | 292 | 0.0 | 0.0 | 0.00 | 0.00 | 0.00 | 18 | 1008.4 |
| 20260508063353 | 80 | 277 | 0.0 | 0.0 | 0.00 | 0.00 | 0.00 | 17 | 1008.6 |
| 20260508062359 | 81 | 277 | 0.0 | 0.0 | 0.00 | 0.00 | 0.00 | 16 | 1008.5 |
| 20260508061406 | 82 | 305 | 0.0 | 0.0 | 0.00 | 0.00 | 0.00 | 16 | 1008.5 |
| 20260508060336 | 82 | 305 | 0.0 | 1.7 | 0.00 | 0.00 | 0.00 | 15 | 1008.6 |
| 20260508055343 | 82 | 296 | 0.0 | 1.7 | 0.00 | 0.00 | 0.00 | 15 | 1008.6 |
| 20260508054351 | 82 | 279 | 0.0 | 3.5 | 0.00 | 0.00 | 0.00 | 15 | 1008.5 |
| 20260508053338 | 81 | 290 | 0.9 | 7.0 | 0.00 | 0.00 | 0.00 | 15 | 1008.5 |
| 20260508052330 | 81 | 263 | 0.0 | 1.7 | 0.00 | 0.00 | 0.00 | 16 | 1008.5 |
| 20260508051335 | 81 | 268 | 0.0 | 1.7 | 0.00 | 0.00 | 0.00 | 17 | 1008.5 |
| 20260508050343 | 82 | 248 | 0.0 | 0.0 | 0.00 | 0.00 | 0.00 | 17 | 1008.5 |
| 20260508045330 | 82 | 243 | 0.0 | 0.0 | 0.00 | 0.00 | 0.00 | 16 | 1008.4 |
| 20260508044342 | 83 | 243 | 0.0 | 0.0 | 0.00 | 0.00 | 0.00 | 15 | 1008.3 |
| 20260508043328 | 84 | 243 | 0.0 | 0.0 | 0.00 | 0.00 | 0.00 | 14 | 1008.2 |
| 20260508042335 | 85 | 243 | 0.0 | 0.0 | 0.00 | 0.00 | 0.00 | 15 | 1008.1 |
| 20260508041327 | 86 | 243 | 0.0 | 0.0 | 0.00 | 0.00 | 0.00 | 14 | 1008.0 |
| 20260508040334 | 86 | 243 | 0.0 | 0.0 | 0.00 | 0.00 | 0.00 | 13 | 1007.9 |
| 20260508035401 | 87 | 243 | 0.0 | 0.0 | 0.00 | 0.00 | 0.00 | 12 | 1007.9 |
| 20260508034326 | 87 | 238 | 0.0 | 2.6 | 0.00 | 0.00 | 0.00 | 12 | 1007.7 |
| 20260508033353 | 88 | 242 | 0.0 | 2.6 | 0.00 | 0.00 | 0.00 | 12 | 1007.6 |
| 20260508032342 | 88 | 228 | 0.0 | 2.6 | 0.00 | 0.00 | 0.00 | 12 | 1007.4 |
| 20260508031329 | 88 | 255 | 0.0 | 2.6 | 0.00 | 0.00 | 0.00 | 11 | 1007.3 |
| 20260508030336 | 89 | 244 | 0.0 | 2.6 | 0.00 | 0.00 | 0.00 | 11 | 1007.2 |
| 20260508025343 | 89 | 246 | 0.9 | 4.3 | 0.00 | 0.00 | 0.00 | 11 | 1007.1 |
| 20260508024333 | 89 | 273 | 1.7 | 6.1 | 0.00 | 0.00 | 0.00 | 11 | 1007.0 |
| 20260508023339 | 90 | 264 | 0.9 | 7.0 | 0.00 | 0.00 | 0.00 | 11 | 1006.8 |
| 20260508022327 | 90 | 253 | 0.9 | 4.3 | 0.00 | 0.00 | 0.00 | 11 | 1006.8 |
| 20260508021333 | 91 | 222 | 0.9 | 7.0 | 0.00 | 0.00 | 0.00 | 10 | 1006.7 |
| 20260508020345 | 91 | 188 | 0.0 | 6.1 | 0.00 | 0.00 | 0.00 | 10 | 1006.7 |
| 20260508015332 | 92 | 263 | 1.7 | 7.8 | 0.00 | 0.00 | 0.00 | 10 | 1006.5 |
| 20260508014338 | 93 | 285 | 0.9 | 7.8 | 0.00 | 0.00 | 0.00 | 10 | 1006.5 |
| 20260508013405 | 93 | 224 | 0.9 | 8.7 | 0.00 | 0.00 | 0.00 | 10 | 1006.4 |
| 20260508012335 | 94 | 302 | 0.9 | 8.7 | 0.00 | 0.00 | 0.00 | 10 | 1006.4 |
| 20260508011342 | 94 | 295 | 3.5 | 9.6 | 0.00 | 0.00 | 0.00 | 10 | 1006.4 |
| 20260508010329 | 95 | 224 | 0.0 | 7.8 | 0.00 | 0.00 | 0.00 | 10 | 1006.4 |
| 20260508005336 | 95 | 254 | 1.7 | 10.4 | 0.00 | 0.00 | 0.00 | 9 | 1006.3 |
| 20260508004327 | 95 | 227 | 3.5 | 9.6 | 0.00 | 0.00 | 0.00 | 9 | 1006.2 |
| 20260508003336 | 95 | 186 | 2.6 | 10.4 | 0.00 | 0.00 | 0.00 | 9 | 1006.3 |
| 20260508002341 | 96 | 241 | 2.6 | 7.8 | 0.00 | 0.00 | 0.00 | 9 | 1006.3 |
| 20260508001327 | 96 | 248 | 1.7 | 9.6 | 0.00 | 0.00 | 0.00 | 9 | 1006.2 |
| 20260508000338 | 97 | 281 | 5.2 | 9.6 | 0.00 | 0.00 | 0.00 | 9 | 1006.3 |
| 20260507235344 | 97 | 188 | 0.0 | 5.2 | 0.00 | 0.00 | 0.00 | 8 | 1006.3 |
| 20260507234331 | 96 | 289 | 3.5 | 9.6 | 0.00 | 0.00 | 0.00 | 8 | 1006.4 |
| 20260507233338 | 96 | 293 | 4.3 | 8.7 | 0.00 | 0.00 | 0.00 | 8 | 1006.3 |
| 20260507232329 | 97 | 262 | 3.5 | 7.8 | 0.00 | 0.00 | 0.00 | 8 | 1006.4 |
| 20260507231337 | 97 | 290 | 3.5 | 7.0 | 0.00 | 0.00 | 0.00 | 8 | 1006.5 |
| 20260507230326 | 97 | 136 | 0.0 | 4.3 | 0.00 | 0.00 | 0.00 | 8 | 1006.5 |
| 20260507225332 | 97 | 131 | 2.6 | 6.1 | 0.00 | 0.00 | 0.00 | 8 | 1006.6 |
| 20260507224403 | 97 | 211 | 0.9 | 4.3 | 0.00 | 0.00 | 0.00 | 7 | 1006.7 |
| 20260507223349 | 97 | 206 | 0.0 | 2.6 | 0.00 | 0.00 | 0.00 | 8 | 1006.8 |
| 20260507222355 | 96 | 279 | 1.7 | 6.1 | 0.00 | 0.00 | 0.00 | 8 | 1006.9 |
| 20260507221340 | 96 | 300 | 2.6 | 7.0 | 0.00 | 0.00 | 0.00 | 8 | 1007.0 |
| 20260507220348 | 96 | 105 | 0.9 | 7.0 | 0.00 | 0.00 | 0.00 | 8 | 1007.1 |
| 20260507215337 | 96 | 175 | 5.2 | 9.6 | 0.00 | 0.00 | 0.00 | 8 | 1007.3 |
| 20260507214325 | 95 | 229 | 0.9 | 5.2 | 0.00 | 0.00 | 0.00 | 9 | 1007.5 |
| 20260507213332 | 95 | 84 | 0.9 | 6.1 | 0.00 | 0.00 | 0.00 | 8 | 1007.7 |